{"data":{"norad_id":64683,"epoch":"2026-09-20T09:00:35.951040Z","epoch_age_seconds":142081,"freshness":"FRESH","line1":"1 64683U 25139V   26263.37541610  .00020014  00000+0  60195-3 0  9993","line2":"2 64683  53.1594 298.3258 0000951  89.1706 270.9406 15.34396919 70150","mean_motion":15.34396919,"eccentricity":9.51e-5,"inclination_deg":53.1594,"raan_deg":298.3258,"arg_perigee_deg":89.1706,"mean_anomaly_deg":270.9406,"bstar":0.00060195,"rev_number":7015,"period_min":93.847946523412,"perigee_km":462.06183282601,"apogee_km":463.36296238143,"semimajor_km":6840.8493976037,"source":"CELESTRAK","updated_at":"2026-09-21T09:00:35.400843Z"}}